Tracking 30923 objects as of 30-Jun-2025
HD Live streaming from Space Station
objects crossing your sky now

ARIANE 5 DEB

Track ARIANE 5 DEB now!


NORAD ID: 43383
Int'l Code: 2008-030F
Perigee: 403.6 km
Apogee: 33,153.2 km
Inclination: 1.9 °
Period: 584.2 minutes
Semi major axis: 23149 km
RCS: Unknown
Launch date: June 12, 2008
Source: France (FR)
Launch site: FRENCH GUIANA (FRGUI)

Note: This is SATELLITE DEBRIS
Your satellite tracking list
ECHOSTAR 17
Track 1 satellite(s)




NASA's NSSDC Master Catalog

Two Line Element Set (TLE):
1 43383U 08030F   25181.47170239  .00059628  00000-0  12857+0 0  9994
2 43383   1.8548 170.8147 7073522 301.0441   8.2427  2.46486072139371
Source of the keplerian elements: AFSPC